Terug naar catalogus

SL-12 R/B

AUX MOTOR

ActiefHEO
NORAD 15053·ROCKET BODY·🇷🇺 Russia

Gelanceerd May 19, 1984 vanaf Baikonur Cosmodrome

Loading…

Volgende Passages (komende 24 uur)

TLE

VersSource: Space-Track

Epoch: Sep 12, 2026, 17:30 UTC

1 15053U 84047G   26255.72926062  .00000580  00000-0  41428-3 0  9996
2 15053  52.0918  57.1399 5502653  65.7052 341.2710  4.70632552688190

Volg SL-12 R/B in realtime met AllMySat

Download on the App Store